Location: Devore Heights
(34.2372°N, 117.4156°W)
Time: 07:38:47
(UTC+00:00)

Vanguard 1 Rocket - Pass Details

Date: 16 September 2024
Orbit: 650 x 4218 km, 34.3° (Epoch: 09 October)

Event Time Altitude Azimuth Distance (km) Brightness Sun altitude
Rises 16:08:27 0° 286° (WNW) 7,293 11.5 30.6°
Reaches altitude 10° 16:12:47 10° 284° (WNW) 6,605 11.3 31.4°
Maximum altitude 16:36:53 70° 208° (SSW) 4,376 11.4 36.0°
Drops below altitude 10° 17:00:18 10° 129° (SE) 6,431 12.9 40.2°
Sets 17:04:28 0° 127° (SE) 7,101 12.8 40.9°
